CAPE
9 3 0 0 0 0 0 0 0 0 0 7 22 13 13 2 15 11 20 19 11 21 14 4 20 31 50 1 0 0 0 0 0 0 0 0 0 0 0 0 0 27 30 35
6 6 2 0 0 0 0 0 0 0 0 2 2 7 18 15 3 8 3 10 1 3 2 3 3 13 6 0 11 25 0 0 0 0 0 0 0 0 0 0 2 0 7 0
3 9 2 0 0 0 0 0 0 0 0 0 0 1 6 7 12 6 8 5 9 3 3 1 1 2 1 0 1 0 0 0 0 0 0 0 0 0 0 0 25 0 15 26
0 5 4 0 0 0 0 0 1 0 2 0 0 1 2 1 2 0 4 8 1 2 10 7 11 0 0 0 1 24 39 0 0 0 0 0 0 0 0 0 0 22 8 10
3 7 3 3 0 0 0 4 1 0 0 0 0 1 1 2 0 0 0 5 0 0 6 4 0 0 0 2 0 0 4 2 0 0 0 0 0 0 0 0 0 1 12 13
7 5 4 4 0 1 9 7 12 3 2 0 0 1 0 0 1 3 8 1 0 1 0 0 0 0 0 0 1 1 0 13 14 4 0 0 0 0 0 0 0 0 1 0
8 4 3 6 4 0 12 11 12 11 1 4 3 8 1 0 1 2 3 4 6 2 0 0 0 0 0 2 1 1 2 2 2 5 5 3 0 0 0 4 0 0 0 0
9 4 0 1 2 0 10 6 6 5 2 8 1 3 5 9 4 3 3 10 4 1 0 0 1 1 7 1 0 7 7 4 1 9 12 0 0 0 0 0 0 1 0 0
7 9 0 0 0 0 13 10 9 10 6 2 14 11 7 5 8 12 6 8 6 11 12 12 6 3 13 11 4 6 11 4 1 8 10 2 0 0 0 0 0 0 18 20
3 10 10 0 0 1 7 18 27 9 7 8 12 15 4 11 9 7 13 2 1 19 10 9 10 6 3 10 11 1 4 3 0 2 13 4 2 0 9 1 0 18 13 21
2 7 11 12 10 3 3 10 26 15 8 7 50 28 15 16 12 7 6 0 2 10 6 9 7 4 1 1 0 0 2 0 0 8 6 2 0 3 72 21 0 5 10 22
1 1 1 13 17 22 25 10 21 7 7 0 3 14 48 39 34 9 13 2 3 14 7 6 5 9 2 0 3 0 0 0 0 0 3 0 2 0 0 0 0 0 0 1
1 1 3 9 13 38 55 27 18 6 8 2 22 43 79 69 11 16 10 2 2 10 2 14 6 7 4 2 0 2 0 1 3 0 0 1 2 6 1 0 0 0 0 0
1 1 3 7 16 32 25 37 71 16 4 8 77 90 81 85 22 4 8 15 18 12 8 16 9 8 7 4 2 0 0 0 1 2 0 0 5 3 2 1 0 0 0 0
3 1 1 3 18 4 4 68 49 4 9 11 36 33 80 0 0 6 11 10 8 6 11 18 8 8 6 12 6 5 0 0 2 2 2 0 0 2 2 2 1 0 0 0
1 2 3 10 13 7 26 0 14 8 1 1 17 81 43 0 23 19 30 24 18 15 24 9 13 22 6 3 10 6 17 18 0 1 1 2 1 3 0 5 5 0 0 0
0 1 7 19 13 7 3 10 3 1 2 1 23 31 49 6 2 39 54 37 31 6 20 6 4 6 7 3 4 0 0 0 0 0 0 0 3 1 0 0 1 1 0 0
1 3 13 9 2 0 9 15 3 2 1 9 8 3 16 2 3 31 74 33 3 14 10 2 10 18 8 1 5 1 0 0 0 1 0 19 6 7 1 1 3 0 1 0
0 10 4 9 6 0 7 1 1 9 9 14 11 5 12 13 8 15 50 43 8 3 8 12 13 3 7 4 9 3 0 0 0 0 11 5 0 2 2 4 0 1 2 0
5 0 1 0 0 2 1 1 0 0 1 5 3 12 5 7 3 9 5 32 5 7 14 25 5 12 34 31 17 15 7 4 0 0 1 2 0 0 1 2 1 0 13 8
1 0 0 3 0 5 10 10 3 10 3 6 3 1 3 10 6 1 10 0 0 8 35 22 15 17 10 20 22 66 60 30 0 0 0 0 0 0 1 3 5 0 0 0
0 3 2 9 10 9 4 4 6 3 4 0 1 8 3 10 7 7 25 2 2 8 44 9 7 0 19 54 49 5 12 24 0 0 0 0 0 0 1 4 3 0 0 0
8 6 1 1 5 1 1 1 1 1 19 11 20 22 28 15 11 18 6 0 7 45 44 40 23 32 54 32 4 0 0 1 13 18 8 0 0 0 0 1 0 0 0 0
1 0 0 2 0 0 0 1 34 24 0 19 23 20 32 38 9 25 11 2 8 27 14 21 50 73 120 62 23 2 20 2 0 0 0 0 0 0 0 0 0 0 0 0
5 5 0 0 0 0 0 0 0 1 3 5 11 15 32 15 3 6 10 1 2 39 29 71 127 115 85 73 51 54 38 52 37 16 22 10 1 1 0 0 0 0 0 0
0 0 0 0 0 0 0 0 0 8 16 16 6 4 1 0 5 7 10 7 8 54 87 127 107 100 106 89 81 61 34 25 17 5 3 6 4 0 0 0 0 0 0 0
0 0 0 0 0 2 15 10 11 24 16 7 22 12 2 6 14 5 42 30 36 84 102 57 38 58 32 114 81 34 14 11 14 6 1 0 0 0 0 0 0 0 0 0
CIN
-1 -0 -0 -0 -0 -0 -0 -0 -0 -0 -0 -1 -1 -1 -1 -2 -1 -1 -6 -3 -3 -2 -2 -2 -1 -3 -9 -78 -0 -0 -0 -0 -0 -0 -0 -0 -0 -0 -0 -0 -0 -2 -3 -5
-1 -0 -0 -0 -0 -0 -0 -0 -0 -0 -0 -0 -1 -1 -4 -2 -3 -1 -1 -2 -4 -4 -1 -1 -5 -7 -6 -0 -52 -6 -7 -0 -0 -0 -0 -0 -0 -0 -0 -0 -1 -0 -3 -0
-1 -0 -0 -0 -0 -0 -0 -0 -0 -0 -0 -1 -2 -2 -1 -2 -3 -2 -2 -3 -2 -2 -3 -5 -1 -1 -2 -0 -0 -0 -0 -0 -0 -0 -0 -0 -0 -0 -0 -0 -1 -0 -3 -4
-0 -0 -0 -0 -0 -0 -0 -0 -0 -0 -0 -0 -0 -1 -4 -2 -3 -1 -3 -4 -6 -3 -0 -2 -4 -0 -0 -0 -1 -44 -10 -0 -0 -0 -0 -0 -0 -0 -0 -0 -0 -4 -5 -6
-1 -0 -1 -0 -0 -0 -0 -0 -0 -0 -0 -0 -0 -6 -4 -2 -0 -0 -0 -4 -2 -0 -2 -0 -0 -0 -1 -0 -0 -0 -61 -4 -6 -0 -0 -0 -0 -0 -0 -0 -0 -3 -7 -6
-0 -1 -0 -0 -0 -12 -1 -2 -2 -1 -3 -1 -0 -1 -2 -0 -3 -1 -2 -3 -1 -7 -0 -0 -0 -0 -0 -0 -0 -0 -0 -7 -8 -4 -2 -0 -0 -1 -1 -0 -0 -0 -5 -0
-1 -0 -0 -0 -0 -0 -2 -2 -1 -0 -2 -4 -4 -3 -2 -0 -3 -5 -3 -3 -5 -6 -0 -0 -0 -0 -0 -1 -1 -0 -0 -0 -19 -3 -8 -6 -0 -0 -1 -9 -0 -0 -0 -0
-0 -0 -0 -0 -0 -2 -0 -1 -1 -0 -2 -6 -8 -3 -3 -4 -4 -3 -5 -5 -9 -2 -0 -0 -1 -1 -2 -1 -2 -1 -1 -0 -0 -2 -4 -0 -0 -0 -0 -0 -0 -8 -0 -0
-0 -0 -0 -0 -0 -0 -1 -1 -3 -0 -0 -7 -4 -3 -8 -12 -7 -4 -7 -6 -3 -4 -4 -3 -1 -2 -3 -6 -0 -1 -1 -1 -0 -8 -5 -7 -0 -0 -0 -0 -0 -0 -10 -11
-0 -0 -0 -0 -0 -0 -1 -1 -0 -1 -0 -4 -3 -3 -2 -3 -2 -7 -5 -5 -0 -3 -4 -1 -1 -3 -13 -5 -3 -0 -0 -0 -0 -1 -2 -4 -55 -10 -44 -2 -0 -40 -12 -7
-0 -0 -0 -0 -0 -0 -1 -1 -0 -0 -0 -26 -1 -1 -3 -3 -5 -7 -5 -0 -2 -3 -1 -2 -2 -2 -1 -1 -0 -0 -2 -0 -0 -0 -1 -2 -0 -60 -23 -135 -0 -60 -93 -4
-0 -0 -0 -0 -0 -1 -0 -0 -1 -1 -0 -5 -62 -36 -18 -9 -1 -2 -2 -1 -1 -1 -1 -1 -1 -1 -3 -3 -1 -2 -0 -0 -0 -0 -18 -0 -1 -0 -0 -0 -0 -0 -0 -10
-0 -0 -0 -0 -2 -0 -14 -0 -2 -0 -0 -19 -13 -6 -6 -2 -3 -1 -1 -25 -2 -1 -0 -0 -1 -1 -2 -5 -1 -3 -0 -0 -0 -0 -1 -0 -1 -1 -1 -0 -0 -0 -0 -0
-0 -0 -1 -0 -0 -0 -15 -0 -0 -1 -1 -0 -6 -6 -3 -3 -3 -7 -14 -1 -2 -1 -1 -0 -1 -1 -4 -4 -1 -0 -1 -0 -0 -0 -0 -0 -0 -0 -0 -1 -0 -0 -0 -0
-0 -0 -0 -0 -0 -0 -1 -0 -3 -2 -2 -5 -21 -24 -5 -0 -0 -29 -21 -7 -2 -3 -7 -1 -2 -3 -3 -4 -4 -3 -0 -0 -0 -0 -0 -0 -0 -0 -0 -1 -1 -0 -0 -0
-0 -0 -0 -0 -0 -0 -20 -0 -7 -0 -0 -0 -21 -2 -1 -0 -2 -4 -3 -4 -16 -10 -6 -6 -2 -3 -1 -1 -2 -8 -0 -0 -0 -0 -0 -0 -0 -0 -0 -1 -1 -0 -0 -0
-0 -0 -1 -0 -1 -1 -4 -1 -1 -2 -0 -0 -1 -3 -1 -6 -0 -1 -1 -2 -3 -24 -10 -20 -2 -5 -8 -1 -3 -0 -0 -0 -0 -0 -0 -0 -0 -0 -0 -0 -0 -2 -0 -0
-0 -0 -0 -2 -10 -0 -1 -0 -0 -1 -2 -0 -1 -3 -5 -7 -2 -1 -1 -8 -0 -23 -10 -3 -2 -5 -5 -1 -4 -5 -0 -0 -0 -0 -0 -0 -0 -0 -1 -0 -0 -0 -1 -0
-0 -0 -11 -1 -1 -0 -1 -0 -0 -0 -0 -0 -1 -5 -3 -1 -3 -3 -2 -4 -1 -2 -1 -3 -3 -5 -3 -5 -8 -5 -0 -0 -0 -0 -3 -2 -0 -0 -0 -0 -0 -0 -1 -1
-1 -0 -0 -0 -3 -0 -0 -0 -0 -0 -0 -0 -0 -3 -5 -2 -2 -2 -3 -1 -2 -1 -5 -3 -9 -5 -3 -5 -7 -9 -7 -6 -1 -0 -0 -0 -0 -0 -0 -0 -0 -0 -0 -0
-4 -0 -0 -0 -0 -1 -0 -0 -0 -8 -0 -1 -1 -2 -3 -3 -2 -3 -1 -0 -1 -1 -8 -2 -3 -17 -18 -6 -6 -4 -2 -2 -0 -0 -0 -0 -0 -0 -0 -0 -0 -0 -0 -0
-0 -0 -1 -0 -0 -0 -0 -1 -0 -1 -3 -0 -2 -3 -7 -2 -1 -0 -1 -2 -2 -2 -4 -4 -5 -0 -7 -4 -4 -19 -13 -2 -0 -0 -0 -0 -0 -0 -1 -1 -0 -0 -0 -0
-0 -0 -0 -0 -0 -0 -0 -0 -16 -1 -4 -3 -3 -4 -2 -1 -2 -4 -4 -0 -2 -3 -4 -7 -16 -6 -3 -3 -11 -0 -0 -12 -2 -1 -5 -0 -0 -0 -0 -1 -0 -0 -0 -0
-0 -0 -0 -1 -0 -0 -0 -1 -3 -3 -0 -4 -3 -2 -2 -1 -1 -1 -7 -3 -2 -2 -5 -15 -21 -2 -2 -5 -6 -1 -13 -7 -0 -0 -0 -0 -0 -0 -0 -0 -0 -0 -0 -0
-1 -0 -0 -0 -0 -0 -0 -0 -0 -2 -5 -3 -3 -3 -1 -2 -6 -3 -6 -11 -14 -2 -4 -7 -2 -2 -3 -3 -5 -2 -3 -1 -1 -1 -2 -21 -31 -13 -6 -0 -0 -0 -0 -0
-1 -1 -0 -0 -0 -0 -0 -0 -0 -3 -8 -8 -2 -1 -2 -1 -5 -5 -8 -5 -6 -4 -6 -4 -4 -4 -5 -3 -1 -7 -13 -9 -6 -6 -12 -17 -36 -1 -12 -0 -0 -0 -0 -0
-0 -0 -0 -0 -1 -10 -5 -6 -4 -3 -3 -2 -2 -5 -1 -2 -2 -2 -3 -5 -9 -35 -3 -8 -15 -6 -4 -1 -1 -11 -10 -25 -28 -36 -33 -0 -0 -4 -0 -0 -0 -0 -0 -0
Wind_Speed
37 36 36 40 43 42 29 22 22 30 28 25 22 21 22 22 23 22 23 25 28 28 27 28 27 25 18 23 30 36 42 35 38 36 36 37 35 37 34 37 39 31 30 28
35 36 36 39 42 41 27 22 19 26 28 22 25 24 23 23 24 23 21 23 23 27 26 27 25 25 24 23 24 25 31 42 39 40 34 37 42 35 36 38 31 42 37 31
36 36 37 38 41 39 27 22 21 22 23 24 26 26 24 25 22 22 23 22 21 25 29 27 28 27 25 27 25 31 28 37 44 43 36 35 38 38 37 38 37 32 37 26
36 33 36 37 39 38 25 23 20 20 22 26 28 25 24 26 25 23 24 20 23 23 25 30 27 25 28 25 23 26 30 43 45 47 44 34 39 40 39 40 38 37 29 33
35 32 34 36 36 38 29 22 22 22 17 23 27 24 26 27 28 27 27 26 28 28 27 25 32 30 28 27 28 27 27 38 43 48 44 45 38 40 41 44 43 39 35 31
32 30 31 35 33 35 27 27 23 21 21 25 26 26 30 31 30 25 25 30 31 31 28 33 35 35 34 32 29 29 29 32 38 47 45 44 50 39 35 42 42 41 39 35
31 29 28 31 32 30 25 26 25 24 24 26 29 28 30 32 31 32 31 30 31 31 34 36 35 37 38 34 31 28 31 33 32 38 40 53 45 41 38 36 39 38 38 31
29 28 26 28 30 30 24 23 24 23 24 26 27 32 32 32 32 31 31 29 30 32 33 33 31 31 31 32 33 30 29 30 32 38 39 39 42 39 42 38 38 36 36 35
26 27 24 24 27 29 23 22 21 21 22 21 28 32 29 31 31 29 29 29 29 30 29 26 28 27 28 25 25 30 27 30 33 32 39 44 41 36 37 37 45 36 35 31
24 25 24 23 23 23 23 19 19 20 20 18 30 31 31 30 30 30 29 30 28 23 25 27 28 32 26 27 27 25 31 28 37 36 30 30 25 28 26 40 38 31 33 33
23 23 23 24 22 20 19 16 15 16 18 13 12 26 30 30 28 30 30 26 19 22 23 22 22 25 23 27 23 19 26 27 26 32 33 30 22 20 28 25 26 28 28 30
21 21 21 23 22 18 16 13 15 14 14 10 8 15 12 17 28 28 26 25 25 20 21 21 23 25 24 26 28 21 21 20 25 25 27 25 19 15 17 20 24 25 26 26
20 19 19 22 22 20 18 11 14 14 13 7 3 1 20 8 11 25 27 22 20 22 23 23 22 25 25 29 27 26 27 21 24 24 22 26 21 16 16 18 19 20 23 28
19 18 18 20 23 21 15 14 12 10 14 16 14 5 4 9 11 21 25 29 27 25 25 26 26 26 24 30 31 32 27 28 27 30 26 25 24 24 23 21 20 20 21 20
18 16 18 20 21 17 15 13 10 5 10 14 14 16 12 16 11 13 14 25 26 25 24 25 29 28 26 27 30 30 21 23 24 25 26 28 28 27 25 21 19 18 18 17
16 16 16 17 8 5 18 16 19 17 12 13 12 22 10 11 12 13 12 14 22 22 23 26 26 27 25 26 27 18 17 20 22 25 27 29 28 25 24 22 20 17 15 13
15 15 15 11 5 4 13 14 15 16 16 12 7 9 8 14 14 14 15 16 16 20 23 26 29 30 25 27 33 31 29 27 27 27 26 25 21 21 23 24 21 19 14 12
14 14 13 10 3 10 12 13 14 15 12 10 8 14 16 18 17 18 13 13 14 20 23 26 28 28 28 28 28 28 26 27 26 23 22 21 23 21 21 22 24 19 16 13
13 13 14 13 15 15 16 17 16 13 11 10 11 14 18 15 17 16 12 13 18 20 23 27 24 26 27 28 29 31 32 31 30 26 24 23 21 21 19 18 17 16 19 16
10 16 14 14 15 16 15 15 16 13 13 13 12 13 15 15 20 21 19 13 18 19 19 18 20 24 25 27 28 29 30 31 31 30 29 25 24 22 20 19 16 15 17 18
14 15 14 15 13 13 14 15 15 15 11 13 12 11 14 17 24 23 18 19 17 18 16 19 18 17 19 22 23 24 28 31 30 28 27 26 24 22 21 20 19 16 15 15
13 15 15 14 13 13 14 15 15 13 14 13 12 16 6 15 16 17 16 18 18 17 16 17 16 19 21 20 19 23 24 22 20 21 23 23 21 18 16 16 17 17 16 15
15 14 16 15 16 15 15 16 14 13 13 12 9 7 10 14 13 11 18 17 18 17 16 17 17 20 19 17 20 21 16 14 9 10 12 14 16 16 16 16 15 16 16 16
14 15 15 14 15 13 13 11 11 13 11 9 7 9 12 15 14 12 17 17 18 17 16 16 17 19 17 13 12 15 16 15 12 10 9 9 9 10 12 13 15 15 16 17
13 13 14 11 10 9 9 9 8 8 7 7 5 6 11 8 11 15 17 15 17 18 17 18 18 17 15 14 14 12 14 17 15 13 13 14 16 17 17 18 19 19 20 21
11 10 10 9 8 7 6 5 5 6 7 7 8 9 10 10 11 11 6 15 19 17 17 18 16 17 18 17 18 17 16 16 18 17 17 17 19 20 21 22 24 24 25 25
9 9 8 9 7 6 6 5 5 4 6 4 7 9 8 11 9 9 10 18 21 19 20 23 24 24 24 23 22 22 22 22 22 22 22 22 23 23 25 27 27 28 29 30
Wind_Direction
12 14 12 4 351 339 16 29 31 5 2 8 354 333 320 315 303 299 289 279 272 270 270 263 257 255 270 271 254 246 238 247 246 240 243 244 242 242 240 245 246 254 259 265
12 12 12 5 352 346 15 26 28 22 7 13 348 326 319 315 303 300 299 287 285 276 272 263 263 265 279 278 261 256 241 239 243 245 244 241 241 237 242 243 254 248 253 259
11 10 9 4 355 347 11 23 20 16 17 4 341 328 316 308 317 298 298 291 293 285 269 267 260 272 268 275 268 263 251 245 240 242 244 243 243 242 241 243 243 249 252 257
8 10 9 5 357 348 14 23 21 17 7 353 333 329 319 307 305 296 294 290 293 291 273 269 266 271 276 268 275 266 254 246 244 243 246 248 244 244 243 243 244 246 254 254
8 11 10 5 2 349 16 19 11 4 355 351 334 326 312 302 303 296 281 286 285 281 278 275 269 276 273 264 268 266 264 250 245 244 245 246 252 246 245 244 246 249 251 259
10 12 11 7 7 2 17 13 8 3 354 344 332 325 308 296 296 297 291 286 279 274 281 279 271 269 266 262 267 263 259 255 248 245 242 245 246 247 244 247 247 247 248 251
10 12 13 11 11 11 14 12 10 6 356 345 329 317 309 296 293 288 284 285 279 282 285 278 268 261 258 258 258 261 258 257 252 248 244 241 247 246 252 252 249 248 251 252
10 12 14 13 12 11 15 14 14 8 358 348 339 317 303 296 291 286 285 287 288 290 278 269 265 260 259 255 253 253 255 257 251 247 246 251 247 247 246 250 253 251 248 249
11 14 15 14 12 12 17 17 18 14 3 357 340 319 310 300 292 287 287 292 295 281 274 268 257 255 254 255 254 246 251 252 253 250 248 246 248 251 247 247 252 251 251 248
10 12 15 14 14 14 14 18 18 14 7 5 338 317 308 302 291 283 286 292 283 283 272 263 255 250 263 252 249 250 243 252 248 244 251 253 266 264 255 238 246 258 253 247
10 13 14 14 14 15 16 16 26 22 12 6 23 331 301 300 295 282 285 285 293 278 269 265 265 257 262 251 256 259 244 247 249 238 239 246 284 256 245 257 263 260 260 247
10 12 13 12 12 14 14 10 15 19 9 353 284 242 226 252 288 288 281 273 277 279 273 278 270 261 260 261 244 265 247 258 247 245 246 256 278 272 275 276 265 264 260 259
9 12 12 10 9 8 7 0 349 1 3 343 34 4 350 43 240 272 271 279 287 278 289 277 271 264 265 254 257 262 266 276 258 260 258 258 267 282 290 289 282 276 270 261
10 12 12 10 9 9 13 11 24 22 18 13 28 79 253 237 185 226 241 262 276 281 279 272 266 267 275 260 261 264 267 267 266 259 269 275 273 273 282 290 292 287 281 277
10 12 11 10 13 22 21 23 33 71 42 13 255 250 48 298 150 177 180 268 271 277 274 268 266 271 274 269 262 257 262 259 260 258 273 274 274 268 268 279 292 294 285 276
11 11 11 13 13 36 31 41 41 37 43 31 46 285 198 174 178 184 169 185 281 277 275 272 273 274 274 264 255 270 284 275 269 264 271 273 271 273 270 275 284 297 295 284
11 12 13 15 236 48 46 42 34 27 16 38 81 187 43 221 222 210 10 354 324 289 279 274 271 269 271 267 257 266 276 275 274 276 274 267 275 279 278 272 273 282 298 297
15 14 12 27 82 63 56 57 48 47 57 146 155 229 240 280 259 255 18 25 7 300 282 277 274 272 268 264 267 268 274 278 277 274 273 278 275 270 281 279 266 273 287 293
13 10 18 36 40 36 37 39 48 63 148 181 172 231 281 261 261 238 41 32 314 293 283 276 280 272 264 269 272 273 273 271 271 267 267 273 277 267 276 288 276 268 266 272
21 20 36 36 32 37 42 37 35 85 122 146 171 223 255 272 287 314 315 41 306 288 280 293 289 280 278 281 281 279 275 272 267 264 256 264 270 268 272 283 286 282 269 269
30 39 38 41 50 45 43 47 55 51 109 130 163 202 255 34 328 303 319 297 242 277 297 291 293 300 305 305 298 297 289 275 264 258 254 262 271 269 269 278 286 291 284 286
50 52 61 68 67 66 69 63 73 99 93 146 196 279 176 46 41 21 325 289 256 274 265 276 295 328 328 317 320 314 304 287 268 258 260 267 275 283 288 295 295 291 297 292
73 62 56 60 68 62 64 58 83 93 85 78 113 191 68 52 59 84 266 266 238 237 222 286 305 343 339 339 353 347 318 331 316 290 282 279 275 272 280 285 291 295 299 303
67 63 52 64 64 74 87 102 103 90 140 160 141 78 57 40 51 146 240 234 261 262 277 313 333 342 313 301 295 339 340 332 329 315 310 307 297 285 286 291 290 298 302 300
70 73 54 73 117 113 103 110 125 126 128 143 136 131 62 94 89 190 235 256 273 265 290 313 334 335 307 296 293 300 323 340 337 324 305 296 296 292 294 294 293 296 299 300
70 80 73 110 121 136 129 116 110 81 76 81 72 60 59 79 85 104 62 319 291 307 299 318 314 307 295 296 299 298 297 309 326 322 316 310 305 300 298 297 294 294 290 292
66 66 134 171 162 157 151 146 167 137 50 92 56 45 58 46 95 109 60 311 310 322 313 307 299 289 284 287 287 297 304 307 307 307 308 308 305 299 296 291 289 289 288 286